Location: Boston
(42.3580°N, 71.0600°W)
Time: 09:02:04
(UTC-04:00)

LO-87 - Visible Passes

Search period start: 16 July 2018 00:00
Search period end: 26 July 2018 00:00
Orbit: 470 x 492 km, 97.4° (Epoch: 16 July)

Date Brightness Start Highest point End Pass type
(mag) Time Alt. Az. Time Alt. Az. Time Alt. Az.
16 Jul ? 00:34:30 11° WNW 00:34:30 11° WNW 00:35:01 10° WNW visible
16 Jul ? 22:34:41 19° ENE 22:34:47 19° ENE 22:37:22 10° NNE visible
17 Jul ? 00:08:59 22° WNW 00:08:59 22° WNW 00:10:59 10° NW visible
17 Jul ? 22:09:32 10° ENE 22:09:44 10° ENE 22:09:56 10° ENE visible
17 Jul ? 23:43:28 41° NW 23:43:28 41° NW 23:46:06 10° NNW visible
18 Jul ? 23:17:57 53° NNE 23:17:57 53° NNE 23:20:50 10° N visible
19 Jul ? 22:52:26 30° ENE 22:52:26 30° ENE 22:55:15 10° N visible
20 Jul ? 00:26:44 13° WNW 00:26:44 13° WNW 00:27:44 10° NW visible
20 Jul ? 22:26:55 16° ENE 22:26:59 16° ENE 22:29:11 10° NNE visible
21 Jul ? 00:01:13 25° WNW 00:01:13 25° WNW 00:03:17 10° NNW visible
21 Jul ? 23:35:42 44° NNW 23:35:42 44° NNW 23:38:16 10° NNW visible
22 Jul ? 23:10:11 42° NNE 23:10:11 42° NNE 23:12:54 10° N visible
23 Jul ? 22:44:40 24° ENE 22:44:40 24° ENE 22:47:11 10° NNE visible
24 Jul ? 00:18:58 16° WNW 00:18:58 16° WNW 00:20:13 10° NW visible
24 Jul ? 22:19:08 13° ENE 22:19:10 13° ENE 22:20:49 10° NE visible
24 Jul ? 23:53:26 28° NW 23:53:26 28° NW 23:55:31 10° NNW visible
25 Jul ? 23:27:55 42° NNW 23:27:55 42° NNW 23:30:22 10° NNW visible
